Location: *
(37.4917°N, 71.5558°E)
Time: 20:49:53
(UTC+00:00)

Cosmos 1125 Rocket - Pass Details

Date: 09 April 2020
Orbit: 758 x 779 km, 74.0° (Epoch: 31 May)

Event Time Altitude Azimuth Distance (km) Brightness Sun altitude
Exits shadow 22:05:10 53° 356° (N) 958 4.1 -29.6°
Drops below altitude 10° 22:09:16 10° 14° (NNE) 2,336 6.6 -29.0°
Sets 22:11:40 0° 17° (NNE) 3,266 7.5 -28.6°
